Theta_e
354 355 354 353 355 357 356 357 358 358 358 356 356 355 356 356 356 356 357 357 357 356 358 358 356 356 356 357 356 354 356 357 356 357 356 357 358 355 356 358 356 355
353 356 355 353 355 356 357 358 358 358 357 357 356 355 355 355 356 356 356 358 358 357 359 358 356 355 355 356 357 355 357 356 355 356 356 355 356 355 355 357 356 356
353 355 356 355 355 356 357 357 357 358 358 357 357 356 356 356 356 355 354 356 357 359 359 358 357 355 355 357 358 357 356 356 355 356 358 357 356 355 354 355 356 356
355 355 355 355 356 356 356 357 357 357 357 357 356 356 356 356 356 356 356 355 356 359 359 358 359 358 357 357 359 358 356 356 355 355 357 357 356 355 353 353 355 356
356 356 356 356 356 356 357 357 357 357 356 356 356 355 354 356 357 357 358 357 357 358 359 358 359 360 359 358 358 358 357 357 357 355 356 356 354 352 351 351 354 357
356 356 356 356 356 356 357 357 356 357 357 356 356 355 354 355 357 358 358 359 358 358 359 359 359 360 361 359 358 358 356 356 357 356 356 355 352 351 352 355 357 357
356 356 356 357 356 356 357 356 356 358 357 356 356 355 354 354 355 356 356 357 358 358 359 359 359 359 360 360 359 359 357 356 358 358 357 356 353 353 357 359 358 357
356 356 356 356 356 357 357 356 356 358 358 357 355 354 355 355 355 355 355 355 357 358 358 358 358 359 359 359 358 359 358 357 357 358 358 357 356 356 357 358 358 357
357 356 355 355 355 356 356 354 354 356 357 356 356 356 356 356 355 356 355 355 356 357 357 357 357 358 359 358 358 359 359 358 358 357 358 358 357 356 356 356 357 358
357 357 356 354 355 355 355 354 354 354 355 355 355 356 357 356 355 356 356 356 357 357 357 357 356 357 357 357 357 357 358 358 358 358 358 358 357 357 357 357 358 358
356 357 356 355 355 355 354 353 353 354 354 355 354 354 356 355 355 356 357 358 357 357 357 357 357 357 356 356 357 357 357 358 358 358 358 358 357 356 358 358 358 358
354 355 356 355 355 354 353 352 352 353 354 355 355 355 356 355 355 356 358 358 357 357 357 357 356 356 355 356 357 358 358 358 358 358 359 359 358 356 357 358 358 359
353 354 354 354 354 354 352 351 351 351 352 355 356 356 355 355 355 356 357 356 356 356 356 357 357 357 356 356 357 359 358 357 358 359 359 360 359 358 358 359 358 358
351 352 353 353 352 352 351 351 349 349 349 352 355 355 354 355 355 355 356 356 355 355 354 355 357 358 357 356 357 359 359 358 358 357 358 359 359 359 359 358 358 358
353 354 353 353 353 352 351 350 350 351 349 350 353 354 354 354 354 354 355 355 355 355 354 354 357 358 358 357 358 359 359 359 358 357 357 358 358 358 357 356 357 358
354 358 359 357 356 356 353 352 353 354 350 349 353 355 354 355 354 354 355 355 355 355 355 356 358 357 356 357 358 358 358 358 357 357 358 358 358 357 357 356 356 356
353 358 360 359 357 358 357 355 357 357 354 351 352 354 353 354 354 354 354 353 353 355 355 356 357 356 355 355 357 358 357 357 356 355 356 357 356 356 355 355 354 355
354 358 360 359 357 357 357 357 357 358 358 357 355 353 353 353 353 353 353 352 352 353 353 355 356 355 354 353 355 356 357 357 356 355 355 355 355 353 353 353 351 352
354 357 359 358 358 357 357 356 357 358 358 358 358 356 354 352 352 352 351 350 351 350 351 351 352 352 352 352 352 352 353 354 355 355 356 354 352 351 351 352 352 351
354 355 356 357 357 356 355 355 355 357 357 355 355 356 356 354 354 353 352 351 352 351 350 351 350 350 351 351 351 351 350 351 353 356 355 351 349 347 348 350 351 351
355 355 354 354 354 353 352 352 353 354 354 352 353 353 353 353 353 354 354 353 352 352 351 351 351 351 351 350 350 350 349 348 350 352 353 351 348 347 346 347 349 349
353 354 353 353 353 352 352 352 353 353 352 351 351 350 350 350 350 352 354 355 354 353 351 351 350 350 350 349 348 347 347 347 347 348 350 351 349 348 348 347 347 348
349 350 351 351 351 351 351 351 352 352 351 351 350 349 348 348 350 352 354 354 354 353 352 351 350 349 348 348 347 346 346 348 349 349 350 351 351 351 351 351 350 350
347 347 348 348 348 348 348 349 349 350 350 350 350 350 350 349 351 354 354 354 354 353 352 351 350 349 348 347 347 348 349 350 351 351 351 353 354 354 354 353 353 353
345 346 346 346 347 347 347 347 347 347 348 348 348 349 351 351 353 354 354 353 353 352 351 351 350 349 348 347 347 349 349 349 350 352 354 355 356 355 354 354 353 353
343 344 344 344 345 346 346 347 347 347 348 348 347 348 349 349 350 350 350 350 350 350 351 350 350 349 348 349 349 350 350 350 351 353 354 355 356 355 354 354 353 353
Wind_Speed
20 19 20 21 19 19 18 18 18 17 18 17 16 17 16 15 14 14 14 13 13 12 10 11 10 9 8 7 6 7 8 6 5 6 6 4 4 4 4 5 5 5
21 18 20 20 19 19 18 17 17 16 17 16 15 15 15 15 16 15 15 14 14 14 12 12 11 10 9 8 7 8 9 8 6 5 5 5 6 6 5 5 5 5
22 19 19 20 19 19 19 18 17 16 16 17 16 15 14 15 16 15 15 15 14 14 13 12 12 11 10 9 9 9 9 9 7 5 6 7 7 7 6 7 6 4
23 21 20 19 19 19 18 18 18 17 17 18 17 16 15 14 15 14 13 14 14 14 13 12 12 11 10 11 11 10 10 9 7 6 8 8 8 8 8 7 6 5
24 22 20 19 18 18 18 19 19 18 17 18 17 17 16 15 14 13 13 13 13 13 13 12 11 11 11 11 12 12 11 10 8 8 9 9 9 9 8 7 6 6
24 23 21 19 19 19 19 19 19 19 18 17 17 16 16 16 16 15 14 14 13 13 13 12 12 12 12 12 12 12 11 11 10 9 10 10 9 8 7 6 7 8
24 23 22 20 19 20 21 20 19 19 18 17 17 16 16 17 16 16 16 16 15 14 14 13 12 13 13 12 13 13 12 11 10 10 11 11 10 8 6 7 8 9
24 23 23 21 18 19 21 21 20 20 18 17 18 18 15 15 16 15 15 16 15 15 14 14 14 14 14 13 13 14 13 11 11 11 11 11 11 9 8 8 9 10
24 23 23 22 20 19 20 19 20 21 20 18 18 17 15 15 15 14 14 15 15 15 15 15 15 15 15 14 13 13 13 12 12 12 12 12 11 10 10 9 9 9
25 23 23 23 21 20 20 19 19 21 21 21 19 17 16 16 16 14 13 15 16 16 16 15 15 15 15 15 14 13 14 13 12 12 12 12 11 10 9 9 9 10
24 24 23 24 23 22 21 20 20 20 22 23 21 19 17 17 17 16 15 16 16 16 16 16 16 15 14 16 15 14 15 14 13 13 12 12 11 11 11 11 11 12
25 25 24 23 23 22 21 20 20 21 22 22 22 20 19 18 18 18 18 18 18 17 17 18 17 16 16 16 16 15 14 13 13 13 13 13 13 12 11 11 11 12
23 23 24 24 24 22 22 21 21 22 22 24 24 21 20 20 19 19 19 19 18 18 18 18 17 16 16 16 16 15 14 13 13 13 12 13 12 11 10 11 12 12
21 18 16 19 22 22 22 20 19 20 21 24 25 23 22 22 21 20 19 19 18 17 17 19 18 16 17 17 16 15 15 14 13 13 13 12 12 13 13 13 13 13
11 12 10 10 13 16 18 16 12 12 13 17 23 24 23 22 21 20 19 19 18 16 15 17 17 15 14 16 16 15 15 14 13 13 14 13 13 14 14 13 12 12
5 2 3 5 6 8 12 12 9 6 6 10 17 21 20 20 20 19 18 17 17 16 16 15 15 14 13 13 15 16 16 15 14 13 12 13 13 13 12 12 12 12
4 3 2 5 6 7 9 10 8 6 6 7 12 15 15 16 17 17 17 15 14 15 15 15 16 16 14 13 15 17 17 16 15 15 13 12 12 12 12 13 12 12
11 10 12 12 11 8 9 11 9 7 6 6 8 10 12 13 14 15 15 14 13 13 12 14 16 16 14 13 14 16 17 17 16 15 14 12 11 11 12 13 13 14
13 17 19 17 14 10 10 12 12 12 10 7 7 8 9 11 12 13 14 14 13 13 12 14 16 16 16 17 16 15 17 18 18 18 16 13 12 10 9 9 11 14
14 17 18 15 13 12 11 12 13 14 12 9 8 7 6 8 8 9 11 11 11 11 12 14 16 16 17 19 18 17 17 17 19 19 17 13 12 9 6 6 6 8
15 15 15 13 12 13 14 14 14 15 13 11 10 9 7 7 7 7 9 10 10 10 11 13 15 15 16 19 20 20 18 18 20 21 17 12 10 8 8 8 7 7
12 13 13 11 11 12 12 13 13 14 14 14 15 14 12 10 8 8 9 10 11 11 11 12 13 15 16 18 19 19 18 17 18 20 19 14 10 8 9 10 11 10
6 7 9 9 10 10 11 11 12 12 13 14 15 16 16 14 12 11 11 11 12 12 12 13 13 14 15 16 18 18 15 12 13 16 17 14 10 8 9 9 9 10
4 3 4 5 6 6 6 8 9 10 12 13 13 13 13 13 12 12 12 12 13 13 13 14 15 16 15 15 16 16 14 13 13 15 15 12 10 9 9 9 8 10
6 6 5 3 2 1 0 1 3 4 6 8 11 11 11 11 12 13 12 12 12 12 13 14 16 17 17 16 16 15 15 15 14 13 12 10 9 8 7 7 8 10
9 8 7 6 5 4 2 2 2 1 2 5 7 8 9 10 11 11 12 12 12 12 13 14 15 16 15 15 16 15 15 14 13 11 10 9 7 6 5 6 7 9
Wind_Direction
179 179 181 181 182 181 178 180 185 188 191 193 199 200 198 200 199 201 208 206 206 211 211 214 219 221 219 218 216 204 205 214 212 215 217 217 247 259 270 291 303 307
182 180 183 182 182 184 184 184 190 194 195 197 199 202 204 203 200 204 209 207 207 210 211 213 220 228 228 224 223 215 217 229 226 224 236 239 249 253 250 265 284 295
186 185 184 184 184 188 189 188 193 197 195 195 196 202 205 202 202 207 212 210 208 211 212 213 219 225 222 219 226 224 224 235 236 230 241 252 260 258 250 257 267 281
187 189 188 190 191 192 191 190 196 199 198 195 196 201 202 200 203 206 210 209 206 209 213 215 220 220 216 215 223 230 229 235 243 235 238 255 265 264 260 257 260 277
189 190 189 192 193 192 192 194 197 196 196 195 195 199 200 201 205 205 207 209 205 208 213 217 218 216 219 220 224 234 231 231 242 240 240 256 265 264 260 257 268 286
192 192 191 194 195 193 193 195 194 192 193 194 195 199 199 201 205 203 205 210 208 210 214 219 218 214 220 224 227 237 236 231 240 244 245 256 262 260 255 254 275 288
193 194 193 197 200 198 195 193 193 194 196 197 199 202 202 201 203 204 208 212 212 213 217 220 220 217 221 226 227 235 239 234 238 247 252 255 257 257 255 255 270 284
192 196 196 199 203 199 195 197 198 196 196 199 201 205 207 202 202 207 212 213 211 212 217 222 224 222 223 227 229 234 238 235 237 247 253 251 252 255 257 257 265 278
190 195 196 199 203 202 200 204 207 202 199 201 200 201 204 203 202 206 211 213 211 211 216 222 227 225 223 225 230 234 238 238 237 244 252 254 255 259 260 258 262 272
189 194 196 199 203 205 204 207 210 206 201 203 202 200 203 205 203 206 214 215 212 212 215 219 224 226 224 224 228 234 239 241 238 241 251 257 259 266 267 264 265 268
190 194 196 198 203 208 208 206 208 205 201 205 207 204 208 210 204 205 213 216 215 217 216 216 218 221 223 225 228 234 238 240 242 243 250 255 261 269 267 261 265 268
193 196 197 199 203 207 210 209 208 207 205 205 204 201 204 208 206 207 213 218 223 225 223 223 222 220 223 225 227 231 236 240 242 242 245 252 258 265 261 255 261 266
194 196 199 202 205 207 210 211 212 212 209 205 202 200 202 206 208 211 214 220 228 230 229 230 229 226 226 227 226 229 233 238 239 238 242 249 252 255 254 254 259 263
200 201 201 204 207 209 212 213 215 217 215 209 204 203 205 209 212 214 215 220 227 232 233 232 230 231 232 230 229 230 233 238 243 246 247 248 248 251 253 252 256 261
206 211 216 218 211 208 211 214 219 221 215 207 203 204 208 213 217 218 217 219 224 231 237 233 230 236 239 235 233 232 233 236 242 246 247 248 253 257 258 257 258 264
1 31 188 213 201 188 196 206 216 215 186 176 188 199 205 209 214 217 216 218 221 226 229 225 225 233 241 244 242 239 237 235 235 239 242 248 256 260 262 264 265 269
297 352 168 186 182 173 179 188 197 197 179 168 179 192 199 202 205 206 207 213 215 214 214 215 221 229 231 238 245 242 238 237 236 236 238 245 255 260 265 269 268 267
215 229 228 217 208 202 191 190 193 188 181 180 186 193 200 204 206 205 208 216 217 213 213 217 224 229 226 233 243 239 234 237 238 234 233 237 247 255 261 268 272 270
220 227 229 221 211 208 202 199 202 200 194 192 194 197 198 202 209 215 219 220 218 222 231 232 231 232 230 232 238 237 233 235 236 233 231 234 241 249 263 278 286 283
225 232 234 231 227 229 228 221 215 211 206 203 204 203 198 196 199 209 216 214 208 216 230 231 229 232 232 230 233 238 239 236 232 230 232 238 237 241 260 285 300 292
211 223 231 235 238 240 241 239 234 229 226 224 222 218 220 223 218 214 216 214 211 216 221 220 220 227 232 233 237 241 242 241 237 231 232 237 231 232 254 270 282 290
204 216 223 228 233 237 237 236 236 235 234 238 239 236 238 243 242 234 226 222 221 223 222 217 217 222 227 231 236 241 243 247 243 230 226 229 231 240 256 263 270 277
186 211 224 231 236 239 239 238 239 240 239 241 245 246 246 247 247 244 239 235 230 225 224 224 223 223 223 226 233 239 240 238 227 212 209 213 218 229 242 250 263 272
124 156 203 228 236 239 244 246 247 250 251 249 249 249 246 240 238 238 239 242 242 238 235 234 231 228 225 224 229 230 218 201 197 197 195 196 200 210 226 241 262 277
91 98 99 96 103 134 185 264 263 258 255 248 242 238 231 223 223 225 228 236 242 241 238 235 232 229 226 224 223 216 200 189 192 196 192 192 201 211 228 248 262 275
68 66 67 73 75 74 96 127 138 159 193 207 213 216 216 222 228 233 236 239 242 239 236 232 225 219 216 216 216 210 199 193 196 201 200 200 203 209 226 252 267 275